User: anonymous   Login
Location: Zagreb
(45.8000°N, 16.0000°E)
Time: 00:19:09
(UTC+01:00)
Language:

DOVE 4 - Orbit

View from above orbital plane
View from above orbital plane
View from above satellite
View from above satellite

Ground track
Ground track

The orbit data is extracted from the following two-line orbital elements,

1 39430U 13066Q   20304.80240975  .00000239  00000-0  51704-4 0  9994
2 39430  97.7982 235.2025 0151889 117.9197 243.7481 14.59455063369547
Epoch (UTC): 30 October 2020 19:15:28
Eccentricity: 0.0151889
inclination: 97.7982°
perigee height: 587 km
apogee height: 802 km
right ascension of ascending node: 235.2025°
argument of perigee: 117.9197°
revolutions per day: 14.59455063
mean anomaly at epoch: 243.7481°
orbit number at epoch: 36954

The dashed part of the orbit path shows where the satellite is in the earth's shadow,  

DLR